Mid Labrador Coast: Past 24 Hour Conditions

 

Port aux Basques

02:30 AM NDT 01 November 2014
This table is a summary of hourly weather conditions for the past 24 hours.
Date / Time
(NDT)
Wind(knots) Conditions Visibility(km) Pressure(kPa) Air tempC) Relative humidity(%) Dew pointC)
01 November 2014
2:30 E 3 Cloudy 15 102.1 5 80 2
1:30 NNE 5 Mostly Cloudy 15 102.1 4 77 1
0:30 N 5 Cloudy 15 102.1 4 80 1
31 October 2014
23:30 ENE 4 Cloudy 15 102.1 5 76 1
22:30 NNE 6 Mostly Cloudy 15 102.1 3 80 0
21:30 N 5 Mostly Cloudy 15 102.1 4 76 0
20:30 N 6 Clear 15 102.1 2 80 -1
19:30 NNW 7 Clear 15 102.0 3 75 -1
18:30 WNW 5 Clear 15 102.0 5 67 -1
17:30 WNW 11 Sunny 15 101.9 7 58 -1
16:30 WNW 11 Mainly Sunny 15 101.8 8 55 0
15:30 W 15 Sunny 15 101.8 9 55 0
14:30 W 15 Mainly Sunny 15 101.7 9 55 1
13:30 WNW 14 Mostly Cloudy 15 101.7 9 60 2
12:30 NW 12 gust 17 Sunny 15 101.6 9 56 1
11:30 WNW 13 Mainly Sunny 15 101.6 9 61 2
10:30 WNW 12 gust 19 Mainly Sunny 15 101.6 7 70 2
9:30 WNW 9 Sunny 15 101.5 7 68 2
8:30 WNW 14 Mostly Cloudy 15 101.4 7 67 1
7:30 NW 10 Clear 15 101.3 6 73 1
6:30 WNW 16 Clear 15 101.3 6 76 2
5:30 WNW 16 gust 22 Mainly Clear 15 101.2 7 72 2
4:30 W 22 gust 28 Mostly Cloudy 15 101.1 7 67 1
3:30 NW 13 gust 18 Mostly Cloudy 15 101.1 7 67 1
2:30 WNW 15 Mainly Clear 15 101.0 7 71 2
 
Map of Atlantic - Newfoundland marine weather areas Southwestern Grand Banks - 44138 Banquereau - 44139 Tail of the Bank - 44140 Nickerson Bank - 44251 Northeast Burgeo Bank - 44255 Blanc-Sablon Airport Cap Whittle Chevery Natashquan Airport Heath Point Miscou Island Grand Étang Ingonish Beach North Mountain St.Paul Island J.A. Douglas McCurdy Sydney Airport Charlottetown Airport East Point North Cape Argentia Bonavista Burgeo Cape Race Corner Brook Daniel's Harbour Englee Ferolle Point La Scie Port aux Basques Rocky Harbour Sagona Island St. Anthony Airport St. John's Int'l Airport St. Lawrence Stephenville Airport Twillingate Winterland Wreckhouse Cartwright Airport Mary's Harbour Grates Cove Pool's Island Marticot Island Long Pond Îles de la Madeleine Airport
Legend: buoyBuoy land stationLand Station